When you browse on this site, cookies collect data to enhance your experience and personalize the content and advertising you see.
Visit our Privacy Policy to learn more. By continuing to use the site, you agree to this use of cookies and data.
  • In Austria
  • List of Countries
  • For 7 days
  • Water Temperature
  • Weather Map
  • News
  • Weather Widgets
  • user-avatar
    Login

    Hourly Weather Susa

    Today, 17 September, Tuesday

    Time Temperature Precipitation Wind Pressure Humidity
    00:00 +11°C° 0 mm 1 mps 557 mmHg 94%
    01:00 +10°C° 0 mm 1 mps 557 mmHg 93%
    02:00 +10°C° 0 mm 1 mps 557 mmHg 93%
    03:00 +10°C° 0 mm 1 mps 556 mmHg 92%
    04:00 +10°C° 0 mm 1 mps 556 mmHg 92%
    05:00 +11°C° 0 mm 1 mps 557 mmHg 89%
    06:00 +12°C° 0 mm 1 mps 558 mmHg 87%
    07:00 +13°C° 0 mm 1 mps 559 mmHg 85%
    08:00 +15°C° 0 mm 1 mps 560 mmHg 75%
    09:00 +19°C° 0 mm 1 mps 562 mmHg 64%
    10:00 +20°C° 0 mm 2 mps 563 mmHg 54%
    11:00 +20°C° 0.4 mm 2 mps 562 mmHg 57%
    12:00 +20°C° 0.4 mm 2 mps 561 mmHg 59%
    13:00 +20°C° 0.4 mm 2 mps 561 mmHg 61%
    14:00 +19°C° 1.2 mm 2 mps 560 mmHg 67%
    15:00 +19°C° 1.2 mm 1 mps 559 mmHg 73%
    16:00 +18°C° 1.2 mm 1 mps 558 mmHg 79%
    17:00 +16°C° 1.5 mm 1 mps 558 mmHg 84%
    18:00 +15°C° 1.5 mm 1 mps 558 mmHg 89%
    19:00 +13°C° 1.5 mm 1 mps 557 mmHg 94%
    20:00 +13°C° 1.5 mm 1 mps 558 mmHg 95%
    21:00 +12°C° 1.5 mm 1 mps 558 mmHg 95%
    22:00 +12°C° 1.5 mm 1 mps 558 mmHg 96%
    23:00 +12°C° 0.1 mm 1 mps 558 mmHg 96%

    Tomorrow, 18 September, Wednesday

    Time Temperature Precipitation Wind Pressure Humidity
    00:00 +11°C° 0.1 mm 1 mps 558 mmHg 96%
    01:00 +10°C° 0.1 mm 0 mps 557 mmHg 96%
    02:00 +10°C° 0 mm 0 mps 557 mmHg 95%
    03:00 +10°C° 0 mm 0 mps 557 mmHg 95%
    04:00 +11°C° 0 mm 1 mps 557 mmHg 94%
    05:00 +10°C° 0 mm 0 mps 558 mmHg 92%
    06:00 +11°C° 0 mm 0 mps 558 mmHg 91%
    07:00 +12°C° 0 mm 0 mps 559 mmHg 89%
    08:00 +14°C° 0.1 mm 1 mps 560 mmHg 85%
    09:00 +15°C° 0.1 mm 1 mps 560 mmHg 82%
    10:00 +16°C° 0.1 mm 1 mps 561 mmHg 78%
    11:00 +18°C° 0.3 mm 1 mps 560 mmHg 75%
    12:00 +19°C° 0.3 mm 1 mps 560 mmHg 72%
    13:00 +19°C° 0.3 mm 1 mps 560 mmHg 70%
    14:00 +19°C° 1.1 mm 1 mps 559 mmHg 74%
    15:00 +18°C° 1.1 mm 1 mps 558 mmHg 79%
    16:00 +16°C° 1.1 mm 1 mps 557 mmHg 84%
    17:00 +15°C° 1.4 mm 1 mps 557 mmHg 88%
    18:00 +14°C° 1.4 mm 0 mps 557 mmHg 92%
    19:00 +13°C° 1.4 mm 0 mps 557 mmHg 96%
    20:00 +12°C° 2.1 mm 0 mps 557 mmHg 96%
    21:00 +12°C° 2.1 mm 0 mps 557 mmHg 96%
    22:00 +12°C° 2.1 mm 1 mps 558 mmHg 97%
    23:00 +12°C° 0.5 mm 1 mps 557 mmHg 96%

    Day after tomorrow, 19 September, Thursday

    Time Temperature Precipitation Wind Pressure Humidity
    00:00 +12°C° 0.5 mm 1 mps 557 mmHg 96%
    01:00 +12°C° 0.5 mm 1 mps 557 mmHg 95%
    02:00 +12°C° 0.1 mm 1 mps 557 mmHg 95%
    03:00 +11°C° 0.1 mm 0 mps 557 mmHg 95%
    04:00 +11°C° 0.1 mm 0 mps 557 mmHg 94%
    05:00 +11°C° 0 mm 0 mps 557 mmHg 93%
    06:00 +11°C° 0 mm 0 mps 558 mmHg 91%
    07:00 +12°C° 0 mm 0 mps 558 mmHg 90%
    08:00 +14°C° 0.2 mm 0 mps 559 mmHg 84%
    09:00 +16°C° 0.2 mm 1 mps 560 mmHg 79%
    10:00 +19°C° 0.2 mm 1 mps 561 mmHg 73%
    11:00 +19°C° 1.1 mm 1 mps 560 mmHg 75%
    12:00 +19°C° 1.1 mm 1 mps 560 mmHg 76%
    13:00 +19°C° 1.1 mm 1 mps 559 mmHg 78%
    14:00 +18°C° 2 mm 1 mps 558 mmHg 82%
    15:00 +16°C° 2 mm 1 mps 558 mmHg 86%
    16:00 +16°C° 2 mm 1 mps 557 mmHg 90%
    17:00 +14°C° 2.5 mm 0 mps 557 mmHg 92%
    18:00 +13°C° 2.5 mm 0 mps 557 mmHg 95%
    19:00 +12°C° 2.5 mm 0 mps 557 mmHg 97%
    20:00 +12°C° 0.8 mm 0 mps 557 mmHg 97%
    21:00 +11°C° 0.8 mm 0 mps 557 mmHg 97%
    22:00 +11°C° 0.8 mm 0 mps 558 mmHg 97%
    23:00 +11°C° 0.2 mm 0 mps 558 mmHg 97%

    20 September, Friday

    Time Temperature Precipitation Wind Pressure Humidity
    00:00 +11°C° 0.2 mm 0 mps 558 mmHg 97%
    01:00 +11°C° 0.2 mm 0 mps 558 mmHg 97%
    02:00 +11°C° 0.5 mm 0 mps 558 mmHg 97%
    03:00 +11°C° 0.5 mm 0 mps 558 mmHg 97%
    04:00 +11°C° 0.5 mm 0 mps 558 mmHg 97%
    05:00 +11°C° 0.3 mm 0 mps 558 mmHg 97%
    06:00 +11°C° 0.3 mm 0 mps 559 mmHg 96%
    07:00 +12°C° 0.3 mm 0 mps 559 mmHg 96%
    08:00 +12°C° 0.5 mm 0 mps 560 mmHg 93%
    09:00 +14°C° 0.5 mm 1 mps 560 mmHg 90%
    10:00 +15°C° 0.5 mm 1 mps 561 mmHg 88%
    11:00 +15°C° 0.9 mm 1 mps 560 mmHg 88%
    12:00 +15°C° 0.9 mm 1 mps 560 mmHg 89%
    13:00 +15°C° 0.9 mm 1 mps 559 mmHg 90%
    14:00 +15°C° 0.7 mm 1 mps 559 mmHg 88%
    15:00 +15°C° 0.7 mm 1 mps 559 mmHg 86%
    16:00 +15°C° 0.7 mm 1 mps 559 mmHg 85%
    17:00 +14°C° 0.4 mm 1 mps 559 mmHg 88%
    18:00 +13°C° 0.4 mm 1 mps 558 mmHg 91%
    19:00 +12°C° 0.4 mm 1 mps 558 mmHg 94%
    20:00 +11°C° 0 mm 1 mps 558 mmHg 94%
    21:00 +11°C° 0 mm 1 mps 558 mmHg 94%
    22:00 +11°C° 0 mm 1 mps 558 mmHg 94%
    23:00 +10°C° 0 mm 1 mps 558 mmHg 94%

    21 September, Saturday

    Time Temperature Precipitation Wind Pressure Humidity
    00:00 +10°C° 0 mm 1 mps 558 mmHg 94%
    01:00 +10°C° 0 mm 1 mps 558 mmHg 93%
    02:00 +10°C° 0 mm 1 mps 557 mmHg 93%
    03:00 +10°C° 0 mm 1 mps 557 mmHg 93%
    04:00 +10°C° 0 mm 1 mps 557 mmHg 92%
    05:00 +10°C° 0 mm 1 mps 558 mmHg 91%
    06:00 +11°C° 0 mm 1 mps 559 mmHg 89%
    07:00 +12°C° 0 mm 1 mps 560 mmHg 88%
    08:00 +14°C° 0.1 mm 1 mps 561 mmHg 80%
    09:00 +16°C° 0.1 mm 1 mps 562 mmHg 72%
    10:00 +18°C° 0.1 mm 2 mps 563 mmHg 64%
    11:00 +19°C° 0.5 mm 2 mps 562 mmHg 64%
    12:00 +19°C° 0.5 mm 3 mps 562 mmHg 63%
    13:00 +19°C° 0.5 mm 3 mps 561 mmHg 62%
    14:00 +19°C° 0.6 mm 3 mps 561 mmHg 64%
    15:00 +18°C° 0.6 mm 2 mps 560 mmHg 66%
    16:00 +18°C° 0.6 mm 2 mps 559 mmHg 68%
    17:00 +16°C° 0.5 mm 2 mps 558 mmHg 75%
    18:00 +14°C° 0.5 mm 2 mps 558 mmHg 83%
    19:00 +12°C° 0.5 mm 1 mps 557 mmHg 90%
    20:00 +11°C° 0.2 mm 1 mps 557 mmHg 91%
    21:00 +11°C° 0.2 mm 1 mps 557 mmHg 92%
    22:00 +10°C° 0.2 mm 1 mps 557 mmHg 93%
    23:00 +10°C° 0 mm 1 mps 557 mmHg 92%

    22 September, Sunday

    Time Temperature Precipitation Wind Pressure Humidity
    00:00 +10°C° 0 mm 1 mps 557 mmHg 90%
    01:00 +10°C° 0 mm 1 mps 557 mmHg 89%
    02:00 +10°C° 0 mm 1 mps 557 mmHg 88%
    03:00 +10°C° 0 mm 1 mps 556 mmHg 87%
    04:00 +9°C° 0 mm 1 mps 556 mmHg 86%
    05:00 +10°C° 0 mm 1 mps 557 mmHg 83%
    06:00 +11°C° 0 mm 1 mps 558 mmHg 81%
    07:00 +12°C° 0 mm 1 mps 559 mmHg 78%
    08:00 +14°C° 0 mm 1 mps 560 mmHg 71%
    09:00 +18°C° 0 mm 1 mps 562 mmHg 63%
    10:00 +20°C° 0 mm 1 mps 563 mmHg 56%
    11:00 +19°C° 0.4 mm 2 mps 562 mmHg 59%
    12:00 +19°C° 0.4 mm 2 mps 561 mmHg 63%
    13:00 +19°C° 0.4 mm 2 mps 561 mmHg 66%
    14:00 +18°C° 1 mm 2 mps 560 mmHg 71%
    15:00 +18°C° 1 mm 1 mps 559 mmHg 76%
    16:00 +18°C° 1 mm 1 mps 559 mmHg 80%
    17:00 +15°C° 0.8 mm 1 mps 558 mmHg 85%
    18:00 +13°C° 0.8 mm 1 mps 558 mmHg 90%
    19:00 +12°C° 0.8 mm 1 mps 557 mmHg 94%
    20:00 +12°C° 0.6 mm 1 mps 558 mmHg 94%
    21:00 +12°C° 0.6 mm 1 mps 558 mmHg 94%
    22:00 +12°C° 0.6 mm 1 mps 558 mmHg 94%
    23:00 +11°C° 0 mm 1 mps 558 mmHg 94%
    Show more